| time (UTC) | temp C | wind direction | speed KPH | gust KPH | rain 1hr cm | rain 24hr cm | rain mn cm | humidity % | barometer mb |
| 20260904133035 | 20 | 193 | 0.0 | 0.0 | 0.30 | 2.67 | 0.36 | 97 | 1015.3 |
| 20260904131532 | 20 | 193 | 0.0 | 0.0 | 0.25 | 2.59 | 0.28 | 97 | 1014.4 |
| 20260904130030 | 20 | 193 | 0.0 | 1.6 | 0.18 | 2.51 | 0.20 | 97 | 1014.7 |
| 20260904124529 | 19 | 192 | 0.0 | 1.6 | 0.08 | 2.39 | 0.08 | 97 | 1014.5 |
| 20260904123028 | 19 | 192 | 0.0 | 1.6 | 0.05 | 2.36 | 0.05 | 97 | 1014.2 |
| 20260904121526 | 19 | 194 | 0.0 | 1.6 | 0.03 | 2.34 | 0.03 | 97 | 1014.3 |
| 20260904120026 | 19 | 194 | 0.0 | 1.6 | 0.03 | 2.34 | 0.03 | 97 | 1014.1 |
| 20260904114525 | 19 | 212 | 0.0 | 0.0 | 0.00 | 0.00 | 0.00 | 97 | 1014.4 |
| 20260904113025 | 19 | 211 | 0.0 | 1.6 | 0.00 | 2.31 | 0.00 | 97 | 1014.3 |
| 20260904111523 | 19 | 224 | 0.0 | 3.2 | 0.00 | 2.31 | 0.00 | 97 | 1014.0 |
| 20260904110022 | 19 | 190 | 0.0 | 0.0 | 0.00 | 2.31 | 0.00 | 97 | 1014.0 |
| 20260904104521 | 19 | 190 | 0.0 | 1.6 | 0.00 | 2.31 | 0.00 | 97 | 1013.6 |
| 20260904103022 | 19 | 191 | 0.0 | 3.2 | 0.00 | 2.31 | 0.00 | 97 | 1013.6 |
| 20260904101520 | 19 | 43 | 0.0 | 0.0 | 0.00 | 2.31 | 0.00 | 97 | 1012.9 |
| 20260904100021 | 19 | 48 | 0.0 | 1.6 | 0.00 | 2.31 | 0.00 | 97 | 1012.4 |
| 20260904094533 | 19 | 34 | 0.0 | 3.2 | 0.00 | 2.31 | 0.00 | 97 | 1012.5 |
| 20260904093018 | 19 | 290 | 0.0 | 3.2 | 0.00 | 2.31 | 0.00 | 97 | 1012.9 |
| 20260904091515 | 19 | 320 | 0.0 | 1.6 | 0.00 | 2.31 | 0.00 | 97 | 1013.2 |
| 20260904090030 | 19 | 4 | 0.0 | 3.2 | 0.00 | 2.31 | 0.00 | 97 | 1013.3 |
| 20260904084514 | 19 | 8 | 0.0 | 1.6 | 0.00 | 2.31 | 0.00 | 97 | 1013.4 |
| 20260904083014 | 19 | 41 | 0.0 | 1.6 | 0.00 | 2.31 | 0.00 | 97 | 1013.3 |
| 20260904081511 | 19 | 138 | 0.0 | 1.6 | 0.00 | 2.31 | 0.00 | 97 | 1013.4 |
| 20260904080012 | 19 | 139 | 0.0 | 0.0 | 0.00 | 2.31 | 0.00 | 97 | 1013.3 |
| 20260904074513 | 19 | 139 | 0.0 | 0.0 | 0.00 | 3.30 | 0.00 | 97 | 1013.0 |
| 20260904073011 | 19 | 139 | 0.0 | 0.0 | 0.00 | 3.30 | 0.00 | 97 | 1013.0 |
| 20260904071506 | 19 | 139 | 0.0 | 0.0 | 0.00 | 3.30 | 0.00 | 97 | 1013.3 |
| 20260904070005 | 20 | 138 | 0.0 | 0.0 | 0.00 | 3.30 | 0.00 | 97 | 1013.5 |
| 20260904064503 | 20 | 138 | 0.0 | 0.0 | 0.00 | 3.43 | 0.00 | 97 | 1013.7 |
| 20260904063009 | 19 | 139 | 0.0 | 0.0 | 0.00 | 3.43 | 0.00 | 97 | 1013.9 |
| 20260904061502 | 19 | 138 | 0.0 | 0.0 | 0.00 | 3.43 | 0.00 | 97 | 1013.6 |
| 20260904060001 | 19 | 138 | 0.0 | 0.0 | 0.00 | 3.43 | 0.00 | 97 | 1013.9 |
| 20260904054502 | 19 | 138 | 0.0 | 0.0 | 0.00 | 3.43 | 0.00 | 97 | 1014.0 |
| 20260904053106 | 19 | 139 | 0.0 | 0.0 | 0.00 | 3.43 | 0.00 | 97 | 1014.0 |
| 20260904051559 | 19 | 139 | 0.0 | 0.0 | 0.00 | 3.43 | 0.00 | 97 | 1014.0 |
| 20260904050157 | 19 | 138 | 0.0 | 0.0 | 0.00 | 3.43 | 0.00 | 97 | 1014.1 |
| 20260904044557 | 19 | 138 | 0.0 | 0.0 | 0.00 | 3.43 | 0.00 | 97 | 1014.1 |
| 20260904043101 | 19 | 139 | 0.0 | 0.0 | 0.00 | 3.43 | 0.00 | 97 | 1014.1 |
| 20260904041553 | 19 | 138 | 0.0 | 0.0 | 0.00 | 3.43 | 0.00 | 97 | 1014.0 |
| 20260904040104 | 19 | 138 | 0.0 | 0.0 | 0.00 | 3.43 | 0.00 | 97 | 1013.5 |
| 20260904034551 | 19 | 138 | 0.0 | 0.0 | 0.00 | 6.12 | 3.43 | 97 | 1013.4 |
| 20260904033051 | 19 | 138 | 0.0 | 0.0 | 0.00 | 6.12 | 3.43 | 97 | 1013.4 |
| 20260904031556 | 19 | 139 | 0.0 | 0.0 | 0.00 | 6.12 | 3.43 | 97 | 1013.2 |
| 20260904030049 | 19 | 138 | 0.0 | 0.0 | 0.00 | 6.12 | 3.43 | 96 | 1013.1 |
| 20260904024548 | 19 | 139 | 0.0 | 0.0 | 0.00 | 7.42 | 3.43 | 96 | 1013.2 |
| 20260904023047 | 19 | 139 | 0.0 | 0.0 | 0.00 | 7.42 | 3.43 | 96 | 1013.1 |
| 20260904021546 | 20 | 139 | 0.0 | 1.6 | 0.00 | 7.42 | 3.43 | 96 | 1013.0 |
| 20260904020048 | 20 | 118 | 0.0 | 0.0 | 0.00 | 7.42 | 3.43 | 96 | 1013.0 |
| 20260904014547 | 20 | 119 | 0.0 | 0.0 | 0.00 | 7.42 | 3.43 | 96 | 1012.8 |
| 20260904013047 | 20 | 118 | 0.0 | 0.0 | 0.00 | 7.42 | 3.43 | 96 | 1012.9 |
| 20260904011546 | 20 | 118 | 0.0 | 0.0 | 0.00 | 7.42 | 3.43 | 96 | 1012.8 |
| 20260904010043 | 20 | 118 | 0.0 | 1.6 | 0.00 | 7.42 | 3.43 | 96 | 1012.5 |
| 20260904004543 | 20 | 118 | 0.0 | 0.0 | 0.00 | 7.42 | 3.43 | 96 | 1012.6 |
| 20260904003043 | 20 | 118 | 0.0 | 0.0 | 0.00 | 7.42 | 3.43 | 96 | 1012.4 |
| 20260904001546 | 20 | 118 | 0.0 | 1.6 | 0.00 | 7.42 | 3.43 | 96 | 1012.3 |
| 20260904000050 | 21 | 119 | 0.0 | 1.6 | 0.00 | 7.42 | 3.43 | 96 | 1012.0 |
| 20260903234541 | 21 | 196 | 0.0 | 0.0 | 0.00 | 7.42 | 3.43 | 96 | 1012.0 |
| 20260903233041 | 21 | 194 | 0.0 | 1.6 | 0.00 | 7.42 | 3.43 | 96 | 1012.2 |
| 20260903231542 | 21 | 209 | 0.0 | 3.2 | 0.00 | 7.42 | 3.43 | 96 | 1012.3 |
| 20260903230046 | 21 | 158 | 0.0 | 3.2 | 0.00 | 7.42 | 3.43 | 96 | 1012.2 |
| 20260903224538 | 21 | 122 | 0.0 | 1.6 | 0.00 | 7.42 | 3.43 | 96 | 1011.4 |
| 20260903223038 | 21 | 49 | 0.0 | 4.8 | 0.00 | 7.42 | 3.43 | 96 | 1011.8 |
| 20260903221539 | 21 | 204 | 0.0 | 4.8 | 0.00 | 7.42 | 3.43 | 96 | 1012.6 |
| 20260903220037 | 21 | 226 | 0.0 | 4.8 | 0.00 | 7.42 | 3.43 | 96 | 1013.0 |
| 20260903214542 | 21 | 229 | 0.0 | 4.8 | 0.00 | 7.42 | 3.43 | 96 | 1013.4 |
| 20260903213045 | 21 | 310 | 0.0 | 0.0 | 0.00 | 7.42 | 3.43 | 96 | 1013.1 |
| 20260903211536 | 21 | 310 | 0.0 | 1.6 | 0.05 | 7.42 | 3.43 | 96 | 1013.2 |
| 20260903210041 | 21 | 310 | 0.0 | 0.0 | 0.15 | 7.42 | 3.43 | 96 | 1013.2 |
| 20260903204535 | 20 | 311 | 0.0 | 1.6 | 1.60 | 7.42 | 3.43 | 96 | 1013.0 |
| 20260903203034 | 20 | 310 | 0.0 | 3.2 | 1.60 | 7.42 | 3.43 | 96 | 1012.1 |
| 20260903201536 | 20 | 25 | 0.0 | 6.4 | 1.55 | 7.37 | 3.38 | 95 | 1012.7 |
| 20260903200034 | 21 | 321 | 6.4 | 19.3 | 1.42 | 7.24 | 3.25 | 92 | 1013.5 |
| 20260903194528 | 23 | 159 | 0.0 | 0.0 | 0.00 | 5.82 | 1.83 | 93 | 1010.9 |
| 20260903193026 | 23 | 159 | 0.0 | 0.0 | 0.00 | 5.82 | 1.83 | 92 | 1010.6 |
| 20260903191525 | 25 | 160 | 0.0 | 0.0 | 0.00 | 5.82 | 1.83 | 90 | 1010.6 |
| 20260903190024 | 25 | 159 | 0.0 | 0.0 | 0.00 | 5.82 | 1.83 | 86 | 1011.1 |
| 20260903184524 | 25 | 159 | 0.0 | 0.0 | 0.00 | 5.82 | 1.83 | 84 | 1011.1 |
| 20260903183023 | 25 | 165 | 0.0 | 0.0 | 0.00 | 5.82 | 1.83 | 87 | 1011.5 |
| 20260903181520 | 25 | 211 | 0.0 | 1.6 | 0.00 | 5.82 | 1.83 | 88 | 1011.5 |
| 20260903180020 | 23 | 221 | 0.0 | 4.8 | 0.00 | 5.82 | 1.83 | 94 | 1011.4 |
| 20260903174515 | 23 | 212 | 0.0 | 3.2 | 0.00 | 5.82 | 1.83 | 96 | 1011.4 |
| 20260903173014 | 22 | 155 | 0.0 | 1.6 | 0.00 | 5.82 | 1.83 | 96 | 1011.7 |
| 20260903171513 | 21 | 156 | 0.0 | 1.6 | 0.08 | 5.82 | 1.83 | 96 | 1011.6 |
| 20260903170013 | 21 | 139 | 0.0 | 1.6 | 0.66 | 5.82 | 1.83 | 96 | 1011.8 |
| 20260903164512 | 21 | 145 | 0.0 | 4.8 | 0.66 | 5.82 | 1.83 | 96 | 1012.2 |
| 20260903163012 | 20 | 135 | 0.0 | 3.2 | 0.66 | 5.77 | 1.80 | 96 | 1012.0 |
| 20260903161511 | 20 | 312 | 1.6 | 4.8 | 0.64 | 5.71 | 1.75 | 96 | 1012.2 |
| 20260903160010 | 21 | 325 | 0.0 | 6.4 | 0.05 | 5.13 | 1.17 | 96 | 1013.7 |
| 20260903154509 | 22 | 308 | 3.2 | 16.1 | 0.05 | 5.13 | 1.17 | 96 | 1014.2 |
| 20260903153007 | 23 | 87 | 0.0 | 0.0 | 0.03 | 5.13 | 1.14 | 96 | 1013.3 |
| 20260903151505 | 23 | 87 | 0.0 | 0.0 | 0.00 | 5.08 | 1.12 | 96 | 1012.5 |
| 20260903150008 | 23 | 203 | 0.0 | 0.0 | 0.00 | 5.08 | 1.12 | 96 | 1012.1 |
| 20260903144511 | 23 | 203 | 0.0 | 0.0 | 0.00 | 5.08 | 1.12 | 96 | 1011.9 |
| 20260903143004 | 24 | 203 | 0.0 | 0.0 | 0.00 | 5.08 | 1.12 | 96 | 1012.3 |
| 20260903141502 | 24 | 203 | 0.0 | 0.0 | 0.00 | 5.08 | 1.12 | 96 | 1011.8 |
| 20260903140005 | 23 | 188 | 0.0 | 0.0 | 0.00 | 5.08 | 1.12 | 97 | 1011.8 |
| 20260903134605 | 23 | 188 | 0.0 | 0.0 | 0.00 | 5.08 | 1.12 | 97 | 1011.9 |